Volver al catálogo

STARLINK-34478

ActivoComunicacionesVLEO
NORAD 64435·PAYLOAD·🇺🇸 United States

Lanzado Jun 17, 2025 desde Vandenberg Space Force Base

Loading…

Próximos Pases (próximas 24 horas)

TLE

ActualizadoSource: CelesTrak SupGP

Época: Sep 15, 2026, 03:24 UTC

1 64435C 25129Z   26258.14215278 -.00074648  00000+0 -25973-2 0  2580
2 64435  69.9990 315.1876 0003437 265.9407 154.5639 15.29608729    10

Sigue STARLINK-34478 en tiempo real con AllMySat

Download on the App Store